Weather in Urgut

Uzbekistan     39°24′31″N   67°14′36″E
temp.,
°C
wind,
m/s
gust,
m/s
humid.,
%
clouds,
%
prec.,
mm/h
press.,
hPa
HPBL,
m
19 may, wed
wed1923:00+20sse33290 0.0 100934
02:00+19sse33250 0.0 100829
05:00+18sse33250 0.0 100829
08:00+24s12200 0.0 1008262
11:00+28wsw45110 0.0 10083190
14:00+30w45110 0.0 10073535
17:00+29wnw44125 0.0 10073495
20:00+22ssw11199 0.0 100811
20 may, thu
thu2023:00+21sse331798 0.0 100816
02:00+19se2220100 0.0 100817
05:00+19se332199 0.0 100829
08:00+25e221995 0.0 1009280
11:00+29n44135 0.0 10093102
14:00+30n641243 0.0 10094011
17:00+29nne66146 0.0 10093684
20:00+22e33216 0.0 101122
21 may, fri
fri2123:00+20s22214 0.0 101112
02:00+19se11243 0.0 101111
05:00+18s11265 0.0 101211
08:00+23nnw11220 0.0 1013288
11:00+27nne55230 0.0 10122579
14:00+28nne552116 0.0 10113375
17:00+27nne742474 0.0 10102934
20:00+20ssw1146100 1.8 101323
22 may, sat
sat2223:00+17ssw114714 1.8 101311
02:00+16wsw014735 0.0 101211
05:00+15sw22501 0.0 101211
08:00+20nne12360 0.0 1012415
11:00+25n43240 0.0 10111525
14:00+27nne531936 0.0 10102269
17:00+26ne5420100 0.0 10091700
20:00+20ene2228100 0.0 101014
23 may, sun
sun2323:00+18sse222996 0.0 100915
02:00+17sse223367 0.0 100811
05:00+16se11395 0.0 100811
08:00+21nw113148 0.0 1008313
11:00+26wnw35214 0.0 10082092
14:00+29wsw5617100 0.0 10073646
17:00+23sse7832100 0.0 1008403
20:00+20se4539100 0.0 100966